TimeCST,TemperatureF,Dew PointF,Humidity,Sea Level PressureIn,VisibilityMPH,Wind Direction,Wind SpeedMPH,Gust SpeedMPH,PrecipitationIn,Events,Conditions,WindDirDegrees,DateUTC
12:00 AM,69,66,86,30.10,12,Calm,Calm,,,,Partly Cloudy,,2012-11-19 06:00:00
3:00 AM,66,63,87,30.08,12,West,4.6,,,,Scattered Clouds,280,2012-11-19 09:00:00
5:00 AM,64.4,62.6,94,30.06,6.2,WNW,5.8,-,N/A,,Partly Cloudy,290,2012-11-19 11:00:00
6:00 AM,64,62,92,30.08,12,Calm,Calm,,,,Scattered Clouds,,2012-11-19 12:00:00
6:00 AM,64.4,62.6,94,30.06,6.2,Calm,Calm,-,N/A,,Partly Cloudy,0,2012-11-19 12:00:00
7:00 AM,66.2,62.6,88,30.09,6.2,West,4.6,-,N/A,,Partly Cloudy,270,2012-11-19 13:00:00
8:00 AM,69.8,64.4,83,30.09,6.2,WNW,5.8,-,N/A,,Partly Cloudy,300,2012-11-19 14:00:00
9:00 AM,74,66,69,30.11,12,WNW,8.1,,,,Scattered Clouds,290,2012-11-19 15:00:00
9:00 AM,75.2,66.2,73,30.11,6.2,WNW,8.1,-,N/A,,Partly Cloudy,290,2012-11-19 15:00:00
10:00 AM,78.8,66.2,65,30.10,6.2,WNW,6.9,-,N/A,,Partly Cloudy,300,2012-11-19 16:00:00
11:00 AM,80.6,64.4,58,30.08,6.2,NW,8.1,-,N/A,,Partly Cloudy,320,2012-11-19 17:00:00
12:00 PM,82.4,64.4,54,30.05,6.2,NW,9.2,-,N/A,,Partly Cloudy,320,2012-11-19 18:00:00
1:00 PM,82.4,62.6,51,30.02,6.2,NW,9.2,-,N/A,,Partly Cloudy,320,2012-11-19 19:00:00
2:00 PM,84.2,62.6,48,30.00,6.2,WNW,8.1,-,N/A,,Partly Cloudy,290,2012-11-19 20:00:00
3:00 PM,84,63,39,29.99,12,WNW,6.9,,,,Partly Cloudy,290,2012-11-19 21:00:00
3:00 PM,84.2,62.6,48,29.98,6.2,WNW,6.9,-,N/A,,Partly Cloudy,290,2012-11-19 21:00:00
4:00 PM,82.4,62.6,51,29.98,6.2,WNW,6.9,-,N/A,,Scattered Clouds,290,2012-11-19 22:00:00
5:00 PM,80.6,64.4,58,29.98,6.2,West,4.6,-,N/A,,Scattered Clouds,270,2012-11-19 23:00:00
6:00 PM,77,66,62,30.01,12,WSW,3.5,,,,Mostly Cloudy,250,2012-11-20 00:00:00
6:00 PM,77.0,68.0,74,30.00,6.2,WSW,3.5,-,N/A,,Mostly Cloudy,250,2012-11-20 00:00:00
9:00 PM,75,66,66,30.06,12,Calm,Calm,,,,Mostly Cloudy,,2012-11-20 03:00:00